CZ-4C DEB, 40113

Orbit data source: Space-Track

CZ-4C DEB, 40113 is space debris in LEO originally from a launch on Sat, 09 Aug 2014 UTC launched from the Jiuquan Satellite Launch Center, China (JSC). Debris objects in space refer to the collection of defunct objects orbiting the Earth. Examples of debris include non-operational satellites, rocket bodies, and fragments generated from explosions, collisions, or faulty payload assembly.

Loading next visibility...
Identifier
40113, 2014-047E
Orbit
LEO
Last TLE update
18 hours ago
Origin
Manufacturer
CAST
Mission
Spacecraft
Bus & Motor
Unknown
Mass
Unknown
Launch date (UTC)
2014-08-09 (11 years ago)
Launch vehicle
Unknown
Launch site
Jiuquan Satellite Launch Center, China (JSC)
Object type
Payload
Rocket body
Debris
Shape & HBR
Unknown
Radar Cross Section
8.300 m², Large (>1 m²)

Expand to show TLE details & history

TLE from 18 hours ago
0 CZ-4C DEB
1 40113U 14047E   25181.81789023 -.00000045  00000-0  52201-4 0  9994
2 40113  63.3806 224.8608 0361980  13.8368 347.2264 13.44596440534711
Epoch: 2025-06-30T19:37Z
TLE epoch observation values (Epoch: 2025-06-30T19:37:45.715Z)
Latitude
-0.00009°
Longitude
11.29803°
Altitude
830.732 km
Speed
7.568 km/s
True Right ascension
14h 59m 26s
True Declination
0° 00' 00"
Sunlit
Object was in full shadow at epoch
Visualization orbit readout
Latitude
5.44796°
Longitude
12.10686°
Altitude
825.249 km
Speed
7.574 km/s
Apparent Right ascension
14h 16m 53s
Apparent Declination
-16° 08' 32"
Sunlit
Object is in full shadow
Visualization observer readout
Local Sidereal Time
01:09:20
Azimuth
323.46° NNW
Elevation
-62.052°
Doppler factor
1
Orbital elements
Apogee altitude
1,361.405 km
Perigee altitude
820.667 km
Semi-major axis
7,469.173 km
Eccentricity
0.0362
Inclination
63.3806°
RAAN
224.8608°
Arg. of periapsis
13.8368°
True anomaly
Unknown
Mean anomaly
347.2264°
Eccentric anomaly
Unknown
Mean motion
3.36228 °/min
Orbital period
107.07 mins
BSTAR
0.000052201
Loading maneuver chart data...
Loading SW <> Apogee altitude chart data...
Loading historical data...
Loading historical data...
Loading historical data...
Loading historical data...
Loading historical data...
Loading historical data...
Loading historical data...

CZ-4C DEB Visibility forecast

Observer location: undefined°, undefined°

Span
Click to sort rows by Start time (UTC) header in descending order
Start Az.
Max El. time (UTC)
Max El. Az.
Max El.
End time (UTC)
End Az.
14 mins2025-07-01 14:01:23.496Z317.841° NNW2025-07-01 14:08:23.496Z238.379° WSW40.358°2025-07-01 14:15:23.496Z167.173° S
8 mins2025-07-02 03:53:23.496Z174.687° S2025-07-02 03:57:23.496Z103.992° ESE32.316°2025-07-02 04:01:23.496Z51.777° ENE
8 mins2025-07-02 05:44:23.496Z265.406° W2025-07-02 05:47:23.496Z313.01° NW28.777°2025-07-02 05:52:23.496Z16.961° NNE
10 mins2025-07-02 11:23:23.496Z351.554° N2025-07-02 11:28:23.496Z43.5° NE22.409°2025-07-02 11:33:23.496Z87.364° E
14 mins2025-07-02 13:13:23.496Z326.109° NNW2025-07-02 13:19:23.496Z341.355° N44.993°2025-07-02 13:27:23.496Z148.138° SSE
|